カタログに戻る

CZ-4B DEB

運用中SSO
NORAD 37580·DEBRIS·🇨🇳 China

打ち上げ May 10, 1999 から Taiyuan Satellite Launch Center

Loading…

次のパス (今後24時間)

TLE

最新Source: Space-Track

元期: Sep 13, 2026, 09:05 UTC

1 37580U 99025EKD 26256.37873019  .00000444  00000-0  26220-3 0  9994
2 37580  98.8014 293.8174 0124189 155.6032 217.8050 14.08844846190174

AllMySatでCZ-4B DEBをリアルタイム追跡

Download on the App Store